一网星座-0595星 (ONEWEB-0595 )

导读

ONEWEB-0595是英国OneWeb公司低轨宽带卫星星座的组成卫星,于2022年12月8日发射入轨。OneWeb星座旨在为全球尤其是偏远、基础设施薄弱区域提供低成本高速互联网接入,该卫星承担着扩展星座覆盖容量、支撑全球宽带互联的任务。作为OneWeb批量部署的低轨卫星之一,它推动了全球星地一体化通信网络建设,后续也参与了低轨卫星5G无缝切换技术验证,助力空天地一体化通信发展。

Basic Information
目录编号:
54661
目录名称:
ONEWEB-0595
国际标识:
2022-166V
轨道中心:
EARTH
卫星名称:
一网星座-0595星
卫星全名:
一网星座-0595星 (ONEWEB-0595 )
卫星状态:
在轨 (已飞行1287 天)
发射日期:
2022-12-08 UTC
国别 :
英国 (GB)
星等 :
--
Orbit Information
数据来源 国际轨道数据 AOE轨道数据
星历时间 2026-06-17T06:52:11+0800
17小时前
查看轨道信息
2026-06-17T02:00:00+0800
22小时前
查看轨道信息
半长轴 7555.886km 7555.884km
偏心率 0.0002125 0.0002115
轨道倾角 87.926° 87.927°
近地点辐角 105.690° 104.893°
升交点赤经 244.020° 244.060°
平近点角 254.446° 10.254°
近地点 1176.143km 1176.148km
远地点 1179.355km 1179.346km
周期 108.940分钟 108.940分钟
每日圈数 13.218273 13.218279
Detailed Information
平衡模式:
三轴稳定
覆盖范围:
全球
运营商:
一网卫星公司
运营商所在国:
英国
制造商(研发单位):
一网卫星公司
制造商所在国:
英国
使用方式:
暂无
Satellite Introduction
OneWeb卫星网络由648颗重约125公斤的微型卫星组成,运行在1200公里的轨道上。 每颗卫星都能够提供至少每秒8千兆位的吞吐量,以使用其高吞吐量的Ku频段有效载荷为家庭和移动平台提供互联网接入。该卫星仍在工作。
2D Orbit Map
3D Orbit Map
Orbit Altitude Analysis Chart
Orbit Inclination Analysis Chart
Orbit Comprehensive Analysis Chart
View Comprehensive Chart